Hourly Data Report for September 03, 2017

All times are specified in Local Standard Time (LST). Add 1 hour to adjust for Daylight Saving Time where and when it is observed.

IQALUIT CLIMATE
NUNAVUT

63°44'50.000" N
68°32'40.000" W
33.50 m
2402592
71321
XFB

Download Data

Hourly Data (September 2017)
Hourly Data Report for September 3, 2017
Temp Definition
°C
Dew Point Temp Definition
°C
Rel Hum Definition
%
Wind Dir Definition
10's deg

Wind Spd Definition
km/h
Visibility Definition
km
Stn Press Definition
kPa
Hmdx Definition


Wind Chill Definition


Weather Definition


TIME
00:00 3.8 3.1 95 17 26   100.26     LegendNANA
01:00 3.6 3.0 96 15 23   100.25     LegendNANA
02:00 3.6 3.1 97 13 23   100.27     LegendNANA
03:00 3.6 3.1 97 13 28   100.28     LegendNANA
04:00 3.5 3.0 97 14 13   100.28     LegendNANA
05:00 3.8 3.4 97 15 14   100.27     LegendNANA
06:00 4.2 3.9 98 15 19   100.27     LegendNANA
07:00 4.1 3.7 97 16 17   100.24     LegendNANA
08:00 4.0 3.6 97 15 24   100.26     LegendNANA
09:00 3.8 3.3 97 15 29   100.22     LegendNANA
10:00 3.7 3.3 97 15 29   100.21     LegendNANA
11:00 4.4 3.8 96 14 33   100.19     LegendNANA
12:00 3.8 3.1 95 15 23   100.13     LegendNANA
13:00 3.8 2.9 94 14 30   100.12     LegendNANA
14:00 3.5 3.0 97 15 26   100.15     LegendNANA
15:00 3.9 3.5 98 15 28   100.08     LegendNANA
16:00 3.3 3.0 98 13 21   100.10     LegendNANA
17:00 3.6 3.2 98 14 32   100.06     LegendNANA
18:00 3.5 3.2 98 15 31   100.07     LegendNANA
19:00 3.6 3.3 98 13 32   100.07     LegendNANA
20:00 3.9 3.5 97 14 29   100.06     LegendNANA
21:00 3.9 3.5 97 14 29   100.09     LegendNANA
22:00 3.6 3.2 97 15 22   100.04     LegendNANA
23:00 3.8 3.3 97 14 19   100.05     LegendNANA

Notes on Data Quality.

Legend

  • E = Estimated
  • M = Missing
  • NA = Not Available
  • ‡ = Partner data that is not subject to review by the National Climate Archives
Date modified: